Weather in Belomorsk

Russia / Republic of Karelia     64°31′49″N   34°45′47″E
temp.,
°C
wind,
m/s
gust,
m/s
humid.,
%
clouds,
%
prec.,
mm/h
press.,
hPa
HPBL,
m
28 july, wed
wed2800:00+12s2367100 0.0 101741
03:00+12sw387390 0.0 1016133
06:00+15sw39669 0.0 1014218
09:00+22wsw46547 0.0 1012672
12:00+26w35337 0.0 10092009
15:00+26nnw253593 0.0 10081419
18:00+17ne496918 0.1 1008274
21:00+14ene28835 0.1 1008193
29 july, thu
thu2900:00+12e27934 0.1 1007155
03:00+11e399823 0.2 1006237
06:00+12e499037 0.1 1005317
09:00+13e587938 0.4 1003446
12:00+17e565894 0.1 1002857
15:00+18e456399 0.7 1001678
18:00+12ne5885100 1.2 1000255
21:00+11e51177100 1.2 1000418
30 july, fri
fri3000:00+11ene387859 0.0 1000369
03:00+10ene369449 0.0 999188
06:00+11e3587100 0.0 998216
09:00+14e2379100 0.0 998375
12:00+13ene359196 0.6 997211
15:00+17e4780100 1.2 996339
18:00+20se136677 1.8 994342
21:00+15ese0087100 2.6 99420
31 july, sat
sat3100:00+13sw3994100 1.1 994216
03:00+13sw389299 1.3 993213
06:00+14ssw2595100 0.0 993242
09:00+17sw3580100 0.4 993463
12:00+15sw2691100 1.6 994260
15:00+20wsw2367100 2.9 994839
18:00+20ssw147195 1.6 995855
21:00+15wnw119116 2.0 99618
1 august, sun
sun100:00+11nne229945 0.0 99743
03:00+11ene119979 0.0 99874
06:00+12nne019670 0.0 998155
09:00+16nnw118263 0.0 998432
12:00+20ne226399 0.1 998932
15:00+17ene4572100 0.4 998382
18:00+15ne358038 0.0 998263
21:00+12ene239793 0.0 999133